Le nostre stazioni meteo in Italia

Pubblicità
Il mio iltempo24.it
Passo Rolle, Italia (16021): Temperatura & dewpoint: 17.07.2019 06:00:00 - 23.07.2019 06:00:00 (CEST)Passo Rolle, Italia (16021): velocità del vento: 17.07.2019 06:00:00 - 23.07.2019 06:00:00 (CEST)Passo Rolle, Italia (16021): direzione del vento: 17.07.2019 06:00:00 - 23.07.2019 06:00:00 (CEST)Passo Rolle, Italia (16021): visibility: 17.07.2019 06:00:00 - 23.07.2019 06:00:00 (CEST)
Data & Tempo tt [°C] td [°C] ff [km/h] ff [kn] dd vv [km]
23.07.2019 06:00:00 13,0 12,0 5 3 N 10
23.07.2019 05:00:00 13,2 12,4 5 3 N 40
23.07.2019 04:00:00 - - - - - -
23.07.2019 03:00:00 - - - - - -
23.07.2019 02:00:00 14,0 12,4 5 3 ONO 30
23.07.2019 01:00:00 - - - - - -
23.07.2019 00:00:00 - - - - - -
22.07.2019 23:00:00 14,0 13,2 4 2 NNO 10
22.07.2019 22:00:00 - - - - - -
22.07.2019 21:00:00 - - - - - -
22.07.2019 20:00:00 16,4 14,1 22 12 SE 30
22.07.2019 19:00:00 17,0 14,0 24 13 SE 10
22.07.2019 18:00:00 17,0 13,0 22 12 SE 10
22.07.2019 17:00:00 18,2 12,7 28 15 SE 30
22.07.2019 16:00:00 18,0 11,0 15 8 SE 10
22.07.2019 15:00:00 19,0 6,0 8 4 SO 10
22.07.2019 14:00:00 18,2 4,8 8 4 OSO 30
22.07.2019 13:00:00 18,0 5,0 11 6 O 10
22.07.2019 12:00:00 17,0 5,0 11 6 OSO 10
22.07.2019 11:00:00 15,8 9,2 9 5 ONO 20
22.07.2019 10:00:00 15,0 11,0 5 3 ONO 10
22.07.2019 09:00:00 15,0 12,0 2 1 ONO 10
22.07.2019 08:00:00 12,8 11,7 4 2 ONO 15
22.07.2019 07:00:00 13,0 12,0 4 2 NNO 10
22.07.2019 06:00:00 12,0 12,0 4 2 NO 10
22.07.2019 05:00:00 12,4 12,1 4 2 NNO 20
22.07.2019 04:00:00 - - - - - -
22.07.2019 03:00:00 - - - - - -
22.07.2019 02:00:00 13,0 12,2 4 2 E 40
22.07.2019 01:00:00 - - - - - -
22.07.2019 00:00:00 - - - - - -
21.07.2019 23:00:00 13,8 12,7 5 3 NNE 40
21.07.2019 22:00:00 - - - - - -
21.07.2019 21:00:00 - - - - - -
21.07.2019 20:00:00 16,0 13,3 16 9 N 30
21.07.2019 19:00:00 18,0 12,0 15 8 SE 10
21.07.2019 18:00:00 16,0 13,0 16 9 SE 10
21.07.2019 17:00:00 16,0 11,6 13 7 ESE 30
21.07.2019 16:00:00 17,0 13,0 24 13 ESE 10
21.07.2019 15:00:00 15,0 11,0 8 4 NO 10
21.07.2019 14:00:00 18,0 11,1 11 6 ONO 30
21.07.2019 13:00:00 18,0 10,0 9 5 O 10
21.07.2019 12:00:00 15,0 10,0 11 6 OSO 10
21.07.2019 11:00:00 14,6 10,2 9 5 O 20
21.07.2019 10:00:00 13,0 11,0 5 3 O 10
21.07.2019 09:00:00 12,0 11,0 4 2 NE 10
21.07.2019 08:00:00 11,8 11,0 5 3 NNO 20
21.07.2019 07:00:00 11,0 10,0 8 4 N 10
21.07.2019 06:00:00 11,0 10,0 5 3 NO 10
21.07.2019 05:00:00 11,2 10,0 2 1 NNO 10
21.07.2019 04:00:00 - - - - - -
21.07.2019 03:00:00 - - - - - -
21.07.2019 02:00:00 11,0 8,4 4 2 ESE 10
21.07.2019 01:00:00 - - - - - -
21.07.2019 00:00:00 - - - - - -
20.07.2019 23:00:00 12,8 11,9 5 3 SE 0,1
20.07.2019 22:00:00 - - - - - -
20.07.2019 21:00:00 - - - - - -
20.07.2019 20:00:00 13,8 13,2 21 11 SE 0,1
20.07.2019 19:00:00 15,0 13,0 22 12 SE 10
20.07.2019 18:00:00 16,0 12,0 24 13 SE 10
20.07.2019 17:00:00 16,2 12,6 24 13 SE 20
20.07.2019 16:00:00 15,0 11,0 24 13 SE 10
20.07.2019 15:00:00 12,0 7,0 21 11 SE 10
20.07.2019 14:00:00 15,6 9,5 21 11 SE 20
20.07.2019 13:00:00 17,0 10,0 13 7 SE 10
20.07.2019 12:00:00 16,0 10,0 11 6 SE 10
20.07.2019 11:00:00 13,8 9,3 4 2 SSO 15
20.07.2019 10:00:00 13,0 9,0 5 3 N 10
20.07.2019 09:00:00 11,0 10,0 8 4 N 10
20.07.2019 08:00:00 11,0 9,9 8 4 NO 10
20.07.2019 07:00:00 11,0 10,0 9 5 N 10
20.07.2019 06:00:00 10,0 8,0 8 4 NNO 10
20.07.2019 05:00:00 9,8 8,2 4 2 ENE 10
20.07.2019 04:00:00 - - - - - -
20.07.2019 03:00:00 - - - - - -
20.07.2019 02:00:00 10,2 8,3 2 1 ESE 10
20.07.2019 01:00:00 - - - - - -
20.07.2019 00:00:00 - - - - - -
19.07.2019 23:00:00 11,0 9,4 16 9 SE 0,1
19.07.2019 22:00:00 - - - - - -
19.07.2019 21:00:00 - - - - - -
19.07.2019 20:00:00 12,6 10,5 18 10 SE 30
19.07.2019 19:00:00 13,0 10,0 21 11 SSE 10
19.07.2019 18:00:00 15,0 9,0 21 11 SE 10
19.07.2019 17:00:00 14,2 10,0 13 7 SSE 20
19.07.2019 16:00:00 12,0 9,0 18 10 SE 10
19.07.2019 15:00:00 14,0 9,0 22 12 SE 10
19.07.2019 14:00:00 14,2 8,2 21 11 SE 25
19.07.2019 13:00:00 16,0 7,0 16 9 SE 10
19.07.2019 12:00:00 16,0 7,0 18 10 SE 10
19.07.2019 11:00:00 15,0 7,8 13 7 ESE 30
19.07.2019 10:00:00 - - - - - -
19.07.2019 09:00:00 - - - - - -
19.07.2019 08:00:00 11,2 7,9 5 3 O 25
19.07.2019 07:00:00 10,0 8,0 4 2 ONO 10
19.07.2019 06:00:00 - - - - - -
19.07.2019 05:00:00 9,8 8,9 8 4 E 15
19.07.2019 04:00:00 - - - - - -
19.07.2019 03:00:00 - - - - - -
19.07.2019 02:00:00 9,8 7,9 2 1 NE 15
19.07.2019 01:00:00 - - - - - -
19.07.2019 00:00:00 - - - - - -
18.07.2019 23:00:00 10,0 7,6 5 3 N 15
18.07.2019 22:00:00 - - - - - -
18.07.2019 21:00:00 - - - - - -
18.07.2019 20:00:00 11,4 5,3 11 6 SE 25
18.07.2019 19:00:00 12,0 6,0 11 6 SE 10
18.07.2019 18:00:00 12,0 8,0 13 7 SE 10
18.07.2019 17:00:00 12,0 4,5 16 9 NNE 25
18.07.2019 16:00:00 14,0 7,0 13 7 ESE 10
18.07.2019 15:00:00 13,0 8,0 11 6 ESE 10
18.07.2019 14:00:00 10,0 7,6 8 4 E 25
18.07.2019 13:00:00 11,0 8,0 24 13 SE 5
18.07.2019 12:00:00 11,0 9,0 11 6 O 10
18.07.2019 11:00:00 13,0 7,2 9 5 OSO 25
18.07.2019 10:00:00 12,0 7,0 8 4 O 10
18.07.2019 09:00:00 11,0 8,0 5 3 O 10
18.07.2019 08:00:00 10,2 7,4 8 4 NNO 20
18.07.2019 07:00:00 9,0 7,0 5 3 NNO 10
18.07.2019 06:00:00 9,0 7,0 5 3 NNO 10
18.07.2019 05:00:00 9,6 7,2 4 2 NO 15
18.07.2019 04:00:00 - - - - - -
18.07.2019 03:00:00 - - - - - -
18.07.2019 02:00:00 9,4 7,0 4 2 O 15
18.07.2019 01:00:00 - - - - - -
18.07.2019 00:00:00 - - - - - -
17.07.2019 23:00:00 9,0 7,4 21 11 N 5
17.07.2019 22:00:00 - - - - - -
17.07.2019 21:00:00 - - - - - -
17.07.2019 20:00:00 11,6 9,5 22 12 SSE 10
17.07.2019 19:00:00 12,0 11,0 22 12 SSE 10
17.07.2019 18:00:00 12,0 11,0 26 14 SE 10
17.07.2019 17:00:00 13,2 10,9 24 13 SE 10
17.07.2019 16:00:00 16,0 11,0 26 14 SE 10
17.07.2019 15:00:00 16,0 9,0 22 12 SE 10
17.07.2019 14:00:00 16,0 8,7 18 10 SSE 75
17.07.2019 13:00:00 14,0 8,0 11 6 SSE 10
17.07.2019 12:00:00 14,0 7,0 15 8 SSE 10
17.07.2019 11:00:00 14,8 7,6 9 5 SE 75
17.07.2019 10:00:00 - - - - - -
17.07.2019 09:00:00 - - - - - -
17.07.2019 08:00:00 11,8 4,3 4 2 N 75
17.07.2019 07:00:00 10,0 5,0 4 2 SSE 10
17.07.2019 06:00:00 - - - - - -

tt = Temperatura
td = dewpoint
ff = velocità del vento
dd = direzione del vento
vv = visibility

Stazioni seguenti

WeatherPro
AMSI
MeteoEarth